Tracking 25648 objects as of 16-May-2022
HD Live streaming from Space Station
objects crossing your sky now

CAPELLA-3 (WHITNEY)

Track CAPELLA-3 (WHITNEY) now!
10-day predictions


NORAD ID: 47489
Int'l Code: 2021-006CE
Perigee: 503.4 km
Apogee: 513.3 km
Inclination: 97.5 °
Period: 94.6 minutes
Semi major axis: 6879 km
RCS: Unknown
Launch date: January 24, 2021
Source: United States (US)
Launch site: AIR FORCE EASTERN TEST RANGE (AFETR)
aabbcc
Your satellite tracking list
Your tracking list is empty




NASA's NSSDC Master Catalog

Two Line Element Set (TLE):
1 47489U 21006CE  22135.73555369  .00043280  00000-0  19132-2 0  9992
2 47489  97.4502 196.8432 0007193  48.2155 311.9694 15.21545732 72387
Source of the keplerian elements: AFSPC